User: anonymous   Login
Location: Natural Bridges National Monument
(37.6093°N, 109.9767°W)
Time: 05:53:25
(UTC-06:00)
Language:

USA 32 - Orbit

View from above orbital plane
View from above orbital plane
View from above satellite
View from above satellite

Ground track
Ground track

The orbit data is extracted from the following two-line orbital elements,

1 19460U 88078A   15226.83558179 0.00000050  00000-0  18179-4 0    01
2 19460  84.9853 252.2537 0002291 110.0805 249.9194 14.33327717    00
Epoch (UTC): 14 August 2015 20:03:14
Eccentricity: 0.0002291
inclination: 84.9853°
perigee height: 779 km
apogee height: 782 km
right ascension of ascending node: 252.2537°
argument of perigee: 110.0805°
revolutions per day: 14.33327717
mean anomaly at epoch: 249.9194°
orbit number at epoch: 0

The dashed part of the orbit path shows where the satellite is in the earth's shadow,  

DLR